DAL8990 KJFK-KSAV

Flight info

Callsign DAL8990
Flight time 1h 53m
Altitude 36000
Route WAVEY EMJAY Q167 ZJAAY Q97 SAWED GUILD Q409 SESUE SOOOP
Aircraft A321/M-FAA/L

Departure

Time 2026-05-04 21:09
Airport John F. Kennedy International Airport (KJFK)

Arrival

Time 2026-05-04 23:02
Airport Savannah Hilton Head International Airport (KSAV)
Time Latitude Longitude Altitude Speed Heading
2026-05-04 20:55 40.64526 -73.77290 21 ft 0 kts
2026-05-04 20:58 40.64519 -73.77290 21 ft 4 kts
2026-05-04 20:58 40.64493 -73.77297 21 ft 4 kts 28°
2026-05-04 20:58 40.64475 -73.77318 23 ft 4 kts 75°
2026-05-04 20:58 40.64474 -73.77329 24 ft 0 kts 89°
2026-05-04 21:01 40.64474 -73.77326 21 ft 3 kts 89°
2026-05-04 21:01 40.64473 -73.77262 21 ft 8 kts 90°
2026-05-04 21:01 40.64455 -73.77178 22 ft 10 kts 114°
2026-05-04 21:02 40.64434 -73.77090 20 ft 10 kts 103°
2026-05-04 21:02 40.64435 -73.77008 22 ft 8 kts 55°
2026-05-04 21:02 40.64485 -73.76990 20 ft 8 kts
2026-05-04 21:02 40.64540 -73.76967 20 ft 8 kts 23°
2026-05-04 21:03 40.64589 -73.76931 20 ft 8 kts 43°
2026-05-04 21:03 40.64659 -73.76871 21 ft 14 kts 30°
2026-05-04 21:03 40.64751 -73.76802 21 ft 18 kts 30°
2026-05-04 21:03 40.64852 -73.76720 22 ft 16 kts 32°
2026-05-04 21:04 40.64945 -73.76644 21 ft 15 kts 30°
2026-05-04 21:04 40.65035 -73.76574 21 ft 14 kts 30°
2026-05-04 21:04 40.65100 -73.76497 22 ft 10 kts 88°
2026-05-04 21:04 40.65089 -73.76449 24 ft 0 kts 115°
2026-05-04 21:07 40.65081 -73.76428 24 ft 8 kts 116°
2026-05-04 21:07 40.65047 -73.76355 22 ft 7 kts 146°
2026-05-04 21:07 40.65025 -73.76358 22 ft 0 kts 201°
2026-05-04 21:08 40.64955 -73.76408 22 ft 37 kts 210°
2026-05-04 21:08 40.64533 -73.76740 20 ft 101 kts 211°
2026-05-04 21:08 40.63784 -73.77321 27 ft 146 kts 209°
2026-05-04 21:08 40.62890 -73.77990 413 ft 153 kts 207°
2026-05-04 21:09 40.61968 -73.78696 1071 ft 154 kts 212°
2026-05-04 21:09 40.61049 -73.79420 1699 ft 156 kts 212°
2026-05-04 21:09 40.60005 -73.80059 1948 ft 180 kts 192°
2026-05-04 21:09 40.58717 -73.79649 2240 ft 214 kts 152°
2026-05-04 21:10 40.57450 -73.78397 2494 ft 242 kts 144°
2026-05-04 21:10 40.56112 -73.76874 2948 ft 264 kts 142°
2026-05-04 21:10 40.54725 -73.75223 3707 ft 272 kts 141°
2026-05-04 21:10 40.53316 -73.73538 4595 ft 275 kts 142°
2026-05-04 21:11 40.51879 -73.71840 5450 ft 279 kts 142°
2026-05-04 21:11 40.50422 -73.70136 6334 ft 282 kts 142°
2026-05-04 21:11 40.48944 -73.68425 7137 ft 286 kts 143°
2026-05-04 21:11 40.47435 -73.66694 7921 ft 290 kts 143°
2026-05-04 21:12 40.45901 -73.64940 8699 ft 295 kts 143°
2026-05-04 21:12 40.44337 -73.63153 9450 ft 301 kts 142°
2026-05-04 21:12 40.42746 -73.61338 10193 ft 306 kts 142°
2026-05-04 21:12 40.41075 -73.59443 10427 ft 329 kts 142°
2026-05-04 21:13 40.39279 -73.57414 10688 ft 349 kts 142°
2026-05-04 21:13 40.37420 -73.55304 11262 ft 357 kts 142°
2026-05-04 21:13 40.35534 -73.53151 11941 ft 362 kts 142°
2026-05-04 21:13 40.33618 -73.50966 12651 ft 366 kts 142°
2026-05-04 21:14 40.31682 -73.48764 13352 ft 371 kts 142°
2026-05-04 21:14 40.29717 -73.46534 14015 ft 375 kts 142°
2026-05-04 21:14 40.27758 -73.44320 14620 ft 379 kts 142°
2026-05-04 21:14 40.25753 -73.42054 15240 ft 383 kts 142°
2026-05-04 21:15 40.23722 -73.39768 15854 ft 387 kts 143°
2026-05-04 21:15 40.21552 -73.37659 16467 ft 389 kts 147°
2026-05-04 21:15 40.19343 -73.35586 17084 ft 393 kts 147°
2026-05-04 21:15 40.17108 -73.33491 17690 ft 397 kts 147°
2026-05-04 21:16 40.14790 -73.31524 18269 ft 398 kts 157°
2026-05-04 21:16 40.12207 -73.30301 18763 ft 395 kts 172°
2026-05-04 21:16 40.09490 -73.29978 19240 ft 391 kts 187°
2026-05-04 21:16 40.06823 -73.30561 19735 ft 386 kts 202°
2026-05-04 21:17 40.04386 -73.31959 20241 ft 381 kts 216°
2026-05-04 21:17 40.02284 -73.34030 20744 ft 379 kts 226°
2026-05-04 21:17 40.00284 -73.36285 21235 ft 382 kts 226°
2026-05-04 21:17 39.98260 -73.38556 21734 ft 385 kts 226°
2026-05-04 21:18 39.96218 -73.40839 22239 ft 389 kts 226°
2026-05-04 21:18 39.94155 -73.43140 22721 ft 392 kts 226°
2026-05-04 21:18 39.92071 -73.45463 23183 ft 396 kts 226°
2026-05-04 21:18 39.89967 -73.47808 23644 ft 399 kts 226°
2026-05-04 21:19 39.88565 -73.49370 23909 ft 401 kts 226°
2026-05-04 21:19 39.86442 -73.51732 24298 ft 404 kts 226°
2026-05-04 21:19 39.83589 -73.54897 24823 ft 407 kts 226°
2026-05-04 21:19 39.81430 -73.57298 25229 ft 410 kts 226°
2026-05-04 21:20 39.79259 -73.59716 25634 ft 412 kts 226°
2026-05-04 21:20 39.77781 -73.61360 25901 ft 414 kts 226°
2026-05-04 21:20 39.75585 -73.63804 26299 ft 416 kts 226°
2026-05-04 21:20 39.73376 -73.66261 26663 ft 419 kts 226°
2026-05-04 21:21 39.71156 -73.68727 27050 ft 421 kts 226°
2026-05-04 21:21 39.68922 -73.71208 27432 ft 424 kts 226°
2026-05-04 21:21 39.66702 -73.73670 27802 ft 426 kts 226°
2026-05-04 21:21 39.64438 -73.76177 28173 ft 429 kts 225°
2026-05-04 21:22 39.62157 -73.78700 28541 ft 431 kts 225°
2026-05-04 21:22 39.59864 -73.81228 28887 ft 434 kts 225°
2026-05-04 21:22 39.57561 -73.83769 29238 ft 436 kts 225°
2026-05-04 21:22 39.55243 -73.86331 29583 ft 438 kts 225°
2026-05-04 21:23 39.52916 -73.88901 29915 ft 441 kts 225°
2026-05-04 21:23 39.50575 -73.91481 30213 ft 443 kts 225°
2026-05-04 21:23 39.48221 -73.94067 30496 ft 445 kts 225°
2026-05-04 21:23 39.45849 -73.96669 30782 ft 448 kts 225°
2026-05-04 21:24 39.43470 -73.99278 31073 ft 450 kts 225°
2026-05-04 21:24 39.41082 -74.01892 31456 ft 449 kts 225°
2026-05-04 21:24 39.38698 -74.04496 31858 ft 449 kts 225°
2026-05-04 21:24 39.36312 -74.07101 32261 ft 448 kts 225°
2026-05-04 21:25 39.33930 -74.09695 32685 ft 447 kts 225°
2026-05-04 21:25 39.31553 -74.12285 33102 ft 446 kts 225°
2026-05-04 21:25 39.29183 -74.14868 33520 ft 446 kts 225°
2026-05-04 21:25 39.26818 -74.17447 33928 ft 445 kts 225°
2026-05-04 21:26 39.24460 -74.20021 34276 ft 444 kts 225°
2026-05-04 21:26 39.22104 -74.22589 34635 ft 442 kts 225°
2026-05-04 21:26 39.19758 -74.25138 35022 ft 440 kts 225°
2026-05-04 21:26 39.17422 -74.27671 35375 ft 437 kts 224°
2026-05-04 21:27 39.15101 -74.30184 35815 ft 433 kts 225°
2026-05-04 21:27 39.12800 -74.32678 35970 ft 431 kts 225°
2026-05-04 21:27 39.08267 -74.37583 35992 ft 424 kts 225°
2026-05-04 21:28 39.03753 -74.42465 36002 ft 423 kts 224°
2026-05-04 21:28 38.99241 -74.47326 36001 ft 423 kts 224°
2026-05-04 21:29 38.94731 -74.52180 35998 ft 422 kts 224°
2026-05-04 21:29 38.90340 -74.57099 35997 ft 420 kts 227°
2026-05-04 21:30 38.86144 -74.62091 35998 ft 420 kts 227°
2026-05-04 21:30 38.81863 -74.67190 35996 ft 420 kts 227°
2026-05-04 21:31 38.75379 -74.74756 35997 ft 420 kts 227°
2026-05-04 21:32 38.70931 -74.79617 36001 ft 421 kts 224°
2026-05-04 21:32 38.66350 -74.84291 36007 ft 421 kts 223°
2026-05-04 21:33 38.61773 -74.88954 36011 ft 420 kts 224°
2026-05-04 21:33 38.57222 -74.93656 36002 ft 420 kts 224°
2026-05-04 21:34 38.52696 -74.98369 36016 ft 419 kts 224°
2026-05-04 21:34 38.48275 -75.03197 36018 ft 418 kts 226°
2026-05-04 21:35 38.43830 -75.07997 36016 ft 419 kts 223°
2026-05-04 21:35 38.39141 -75.12462 35995 ft 421 kts 221°
2026-05-04 21:36 38.34397 -75.16826 36021 ft 420 kts 221°
2026-05-04 21:36 38.29690 -75.21223 36026 ft 419 kts 221°
2026-05-04 21:37 38.25021 -75.25652 36024 ft 418 kts 222°
2026-05-04 21:37 38.20351 -75.30080 36023 ft 418 kts 221°
2026-05-04 21:38 38.15687 -75.34487 36004 ft 417 kts 221°
2026-05-04 21:38 38.11023 -75.38869 36013 ft 416 kts 221°
2026-05-04 21:39 38.06371 -75.43246 36005 ft 416 kts 221°
2026-05-04 21:39 38.01699 -75.47519 36004 ft 418 kts 219°
2026-05-04 21:40 37.96888 -75.51671 35985 ft 418 kts 219°
2026-05-04 21:40 37.92083 -75.55792 36019 ft 417 kts 219°
2026-05-04 21:41 37.87273 -75.59962 36026 ft 415 kts 219°
2026-05-04 21:41 37.82516 -75.64035 36028 ft 415 kts 217°
2026-05-04 21:42 37.77554 -75.67809 36015 ft 417 kts 215°
2026-05-04 21:42 37.72533 -75.71457 36024 ft 415 kts 216°
2026-05-04 21:43 37.67559 -75.75131 36027 ft 413 kts 216°
2026-05-04 21:43 37.62628 -75.78837 36021 ft 412 kts 216°
2026-05-04 21:44 37.57702 -75.82546 36017 ft 412 kts 216°
2026-05-04 21:44 37.52885 -75.86415 36012 ft 406 kts 224°
2026-05-04 21:45 37.48742 -75.91197 36006 ft 404 kts 227°
2026-05-04 21:45 37.44615 -75.96002 35988 ft 404 kts 227°
2026-05-04 21:46 37.40501 -76.00765 35990 ft 404 kts 227°
2026-05-04 21:46 37.36366 -76.05560 35992 ft 404 kts 227°
2026-05-04 21:47 37.32243 -76.10347 36012 ft 402 kts 228°
2026-05-04 21:47 37.28145 -76.15100 36020 ft 400 kts 228°
2026-05-04 21:48 37.24055 -76.19818 36002 ft 399 kts 228°
2026-05-04 21:48 37.19970 -76.24523 35994 ft 398 kts 228°
2026-05-04 21:49 37.15883 -76.29237 35989 ft 398 kts 228°
2026-05-04 21:49 37.11810 -76.33925 35975 ft 397 kts 228°
2026-05-04 21:50 37.07746 -76.38587 35987 ft 395 kts 228°
2026-05-04 21:50 37.03694 -76.43232 35991 ft 394 kts 228°
2026-05-04 21:51 36.99652 -76.47869 35994 ft 394 kts 228°
2026-05-04 21:51 36.95602 -76.52496 36011 ft 394 kts 227°
2026-05-04 21:52 36.91547 -76.57114 35993 ft 394 kts 228°
2026-05-04 21:52 36.87509 -76.61709 36005 ft 394 kts 228°
2026-05-04 21:53 36.83460 -76.66322 36021 ft 394 kts 228°
2026-05-04 21:53 36.79404 -76.70930 36025 ft 394 kts 228°
2026-05-04 21:54 36.75352 -76.75531 36028 ft 394 kts 228°
2026-05-04 21:54 36.71297 -76.80133 36006 ft 394 kts 228°
2026-05-04 21:55 36.67243 -76.84721 36016 ft 393 kts 228°
2026-05-04 21:55 36.63191 -76.89299 36001 ft 394 kts 227°
2026-05-04 21:56 36.59130 -76.93876 36000 ft 394 kts 227°
2026-05-04 21:56 36.55065 -76.98450 36014 ft 394 kts 227°
2026-05-04 21:57 36.50994 -77.03029 35986 ft 394 kts 227°
2026-05-04 21:57 36.46926 -77.07601 35994 ft 395 kts 227°
2026-05-04 21:58 36.42844 -77.12173 36001 ft 395 kts 227°
2026-05-04 21:58 36.38761 -77.16741 36006 ft 395 kts 227°
2026-05-04 21:59 36.34677 -77.21309 36011 ft 395 kts 227°
2026-05-04 21:59 36.30570 -77.25857 35992 ft 396 kts 226°
2026-05-04 22:00 36.26262 -77.30162 35993 ft 399 kts 223°
2026-05-04 22:00 36.21847 -77.34342 36003 ft 400 kts 223°
2026-05-04 22:01 36.18176 -77.37835 36006 ft 399 kts 223°
2026-05-04 22:01 36.13805 -77.42072 36015 ft 399 kts 224°
2026-05-04 22:02 36.09448 -77.46320 36012 ft 399 kts 224°
2026-05-04 22:02 36.05080 -77.50552 35984 ft 399 kts 223°
2026-05-04 22:03 36.00719 -77.54774 36002 ft 398 kts 223°
2026-05-04 22:03 35.96345 -77.58999 36006 ft 398 kts 223°
2026-05-04 22:04 35.91997 -77.63183 36016 ft 399 kts 223°
2026-05-04 22:04 35.87619 -77.67398 36015 ft 399 kts 223°
2026-05-04 22:05 35.83239 -77.71613 36003 ft 399 kts 223°
2026-05-04 22:05 35.78855 -77.75825 36019 ft 399 kts 223°
2026-05-04 22:06 35.74468 -77.80030 36028 ft 399 kts 223°
2026-05-04 22:06 35.70078 -77.84225 36021 ft 399 kts 223°
2026-05-04 22:07 35.65689 -77.88414 36029 ft 400 kts 223°
2026-05-04 22:07 35.61300 -77.92609 36013 ft 399 kts 223°
2026-05-04 22:08 35.56913 -77.96799 36027 ft 399 kts 223°
2026-05-04 22:08 35.52522 -78.00985 36026 ft 400 kts 223°
2026-05-04 22:09 35.48121 -78.05162 36027 ft 400 kts 223°
2026-05-04 22:09 35.43715 -78.09341 36029 ft 400 kts 223°
2026-05-04 22:10 35.39306 -78.13523 36037 ft 401 kts 223°
2026-05-04 22:10 35.34895 -78.17699 36036 ft 401 kts 223°
2026-05-04 22:11 35.30475 -78.21881 36041 ft 401 kts 223°
2026-05-04 22:11 35.26054 -78.26052 36043 ft 401 kts 223°
2026-05-04 22:12 35.21628 -78.30216 36042 ft 401 kts 223°
2026-05-04 22:12 35.17211 -78.34371 36025 ft 401 kts 223°
2026-05-04 22:13 35.12794 -78.38530 36044 ft 400 kts 223°
2026-05-04 22:13 35.08378 -78.42680 36039 ft 400 kts 223°
2026-05-04 22:14 35.03986 -78.46794 36054 ft 400 kts 223°
2026-05-04 22:14 34.99567 -78.50922 36049 ft 400 kts 223°
2026-05-04 22:15 34.95142 -78.55052 36016 ft 400 kts 223°
2026-05-04 22:15 34.90729 -78.59175 36029 ft 400 kts 223°
2026-05-04 22:16 34.86297 -78.63306 36038 ft 401 kts 223°
2026-05-04 22:16 34.81870 -78.67428 36052 ft 401 kts 223°
2026-05-04 22:17 34.77432 -78.71557 36062 ft 401 kts 222°
2026-05-04 22:17 34.72993 -78.75678 36046 ft 401 kts 222°
2026-05-04 22:18 34.68550 -78.79798 36027 ft 402 kts 222°
2026-05-04 22:18 34.64105 -78.83913 36031 ft 402 kts 222°
2026-05-04 22:19 34.59658 -78.88023 36036 ft 402 kts 222°
2026-05-04 22:19 34.55208 -78.92140 36039 ft 402 kts 222°
2026-05-04 22:20 34.50756 -78.96243 36042 ft 402 kts 222°
2026-05-04 22:20 34.46295 -79.00328 36028 ft 402 kts 222°
2026-05-04 22:21 34.41814 -79.04402 36055 ft 402 kts 221°
2026-05-04 22:21 34.37277 -79.08319 36052 ft 403 kts 220°
2026-05-04 22:22 34.32674 -79.12205 36058 ft 404 kts 220°
2026-05-04 22:22 34.28320 -79.15899 36055 ft 404 kts 220°
2026-05-04 22:23 34.23792 -79.19898 36029 ft 402 kts 224°
2026-05-04 22:23 34.19481 -79.24177 36040 ft 400 kts 225°
2026-05-04 22:24 34.15224 -79.28502 36049 ft 400 kts 225°
2026-05-04 22:24 34.10922 -79.32787 36054 ft 401 kts 224°
2026-05-04 22:25 34.06594 -79.37020 36060 ft 401 kts 224°
2026-05-04 22:25 34.02261 -79.41251 36066 ft 401 kts 224°
2026-05-04 22:26 33.97937 -79.45488 36052 ft 401 kts 224°
2026-05-04 22:26 33.93608 -79.49727 36067 ft 401 kts 225°
2026-05-04 22:27 33.89277 -79.53959 36075 ft 401 kts 224°
2026-05-04 22:27 33.84700 -79.57836 36077 ft 407 kts 216°
2026-05-04 22:28 33.79762 -79.61182 36076 ft 407 kts 216°
2026-05-04 22:28 33.74825 -79.64541 35704 ft 407 kts 216°
2026-05-04 22:28 33.72361 -79.66215 35377 ft 407 kts 216°
2026-05-04 22:29 33.69897 -79.67889 35060 ft 407 kts 216°
2026-05-04 22:29 33.67424 -79.69571 34738 ft 408 kts 216°
2026-05-04 22:29 33.64983 -79.71230 34432 ft 409 kts 216°
2026-05-04 22:29 33.62510 -79.72910 34125 ft 409 kts 216°
2026-05-04 22:30 33.60029 -79.74594 33779 ft 410 kts 216°
2026-05-04 22:30 33.57542 -79.76280 33427 ft 411 kts 216°
2026-05-04 22:30 33.55039 -79.77974 33075 ft 413 kts 216°
2026-05-04 22:30 33.52537 -79.79664 32708 ft 412 kts 216°
2026-05-04 22:31 33.50048 -79.81347 32370 ft 410 kts 216°
2026-05-04 22:31 33.47568 -79.83024 32037 ft 408 kts 216°
2026-05-04 22:31 33.45099 -79.84694 31717 ft 407 kts 216°
2026-05-04 22:31 33.42636 -79.86361 31421 ft 406 kts 215°
2026-05-04 22:32 33.40178 -79.88019 31118 ft 405 kts 215°
2026-05-04 22:32 33.37732 -79.89666 30829 ft 403 kts 215°
2026-05-04 22:32 33.35288 -79.91308 30541 ft 402 kts 215°
2026-05-04 22:32 33.32853 -79.92943 30245 ft 401 kts 215°
2026-05-04 22:33 33.30422 -79.94574 29924 ft 400 kts 215°
2026-05-04 22:33 33.27999 -79.96199 29592 ft 398 kts 214°
2026-05-04 22:33 33.25590 -79.97816 29245 ft 396 kts 215°
2026-05-04 22:33 33.23196 -79.99421 28910 ft 394 kts 215°
2026-05-04 22:34 33.20811 -80.01020 28585 ft 392 kts 214°
2026-05-04 22:34 33.18435 -80.02614 28264 ft 391 kts 215°
2026-05-04 22:34 33.16097 -80.04183 27949 ft 389 kts 214°
2026-05-04 22:34 33.13744 -80.05758 27635 ft 388 kts 214°
2026-05-04 22:35 33.11385 -80.07333 27325 ft 386 kts 214°
2026-05-04 22:35 33.09045 -80.08895 27018 ft 385 kts 214°
2026-05-04 22:35 33.06708 -80.10459 26711 ft 384 kts 214°
2026-05-04 22:35 33.04385 -80.12014 26427 ft 382 kts 214°
2026-05-04 22:36 33.02069 -80.13563 26130 ft 381 kts 214°
2026-05-04 22:36 32.99759 -80.15103 25835 ft 380 kts 214°
2026-05-04 22:36 32.97455 -80.16637 25546 ft 379 kts 214°
2026-05-04 22:36 32.95157 -80.18168 25261 ft 378 kts 214°
2026-05-04 22:37 32.92863 -80.19698 24979 ft 377 kts 214°
2026-05-04 22:37 32.90574 -80.21224 24687 ft 376 kts 214°
2026-05-04 22:37 32.88366 -80.22857 24403 ft 369 kts 224°
2026-05-04 22:37 32.86495 -80.24930 24134 ft 366 kts 229°
2026-05-04 22:38 32.84685 -80.27053 23849 ft 365 kts 229°
2026-05-04 22:38 32.82882 -80.29180 23475 ft 364 kts 229°
2026-05-04 22:38 32.81117 -80.31323 23037 ft 361 kts 234°
2026-05-04 22:38 32.79813 -80.33815 22609 ft 353 kts 246°
2026-05-04 22:39 32.78721 -80.36433 22189 ft 352 kts 247°
2026-05-04 22:39 32.77657 -80.39046 21759 ft 351 kts 247°
2026-05-04 22:39 32.76603 -80.41661 21349 ft 350 kts 247°
2026-05-04 22:39 32.75555 -80.44262 20942 ft 348 kts 247°
2026-05-04 22:40 32.74510 -80.46858 20547 ft 347 kts 247°
2026-05-04 22:40 32.73472 -80.49442 20155 ft 346 kts 247°
2026-05-04 22:40 32.72439 -80.52013 19767 ft 344 kts 247°
2026-05-04 22:40 32.71410 -80.54579 19388 ft 343 kts 247°
2026-05-04 22:41 32.70391 -80.57138 19011 ft 342 kts 247°
2026-05-04 22:41 32.69377 -80.59687 18642 ft 341 kts 247°
2026-05-04 22:41 32.68381 -80.62194 18260 ft 340 kts 247°
2026-05-04 22:41 32.67376 -80.64728 17845 ft 338 kts 247°
2026-05-04 22:42 32.66378 -80.67245 17425 ft 336 kts 247°
2026-05-04 22:42 32.65386 -80.69752 17010 ft 335 kts 247°
2026-05-04 22:42 32.64401 -80.72248 16609 ft 333 kts 247°
2026-05-04 22:42 32.63422 -80.74733 16204 ft 332 kts 247°
2026-05-04 22:43 32.62451 -80.77206 15804 ft 330 kts 247°
2026-05-04 22:43 32.61800 -80.78871 15538 ft 329 kts 247°
2026-05-04 22:43 32.60838 -80.81328 15153 ft 328 kts 247°
2026-05-04 22:43 32.59881 -80.83770 14762 ft 326 kts 247°
2026-05-04 22:44 32.58929 -80.86205 14390 ft 324 kts 247°
2026-05-04 22:44 32.57982 -80.88624 14014 ft 322 kts 247°
2026-05-04 22:44 32.57056 -80.90996 13614 ft 319 kts 248°
2026-05-04 22:44 32.56127 -80.93403 13233 ft 315 kts 248°
2026-05-04 22:45 32.55218 -80.95745 12874 ft 311 kts 246°
2026-05-04 22:45 32.53452 -81.00339 12252 ft 301 kts 248°
2026-05-04 22:45 32.52597 -81.02578 11950 ft 297 kts 247°
2026-05-04 22:46 32.51752 -81.04790 11648 ft 293 kts 247°
2026-05-04 22:46 32.50935 -81.06971 11351 ft 293 kts 247°
2026-05-04 22:46 32.50119 -81.09182 11061 ft 293 kts 248°
2026-05-04 22:46 32.49310 -81.11392 10774 ft 292 kts 247°
2026-05-04 22:47 32.48506 -81.13603 10476 ft 292 kts 248°
2026-05-04 22:47 32.47714 -81.15814 10193 ft 292 kts 247°
2026-05-04 22:47 32.46929 -81.18036 9900 ft 292 kts 247°
2026-05-04 22:47 32.46150 -81.20256 9592 ft 291 kts 247°
2026-05-04 22:48 32.45378 -81.22467 9274 ft 290 kts 248°
2026-05-04 22:48 32.44610 -81.24672 8967 ft 289 kts 248°
2026-05-04 22:48 32.43889 -81.26741 8679 ft 286 kts 247°
2026-05-04 22:48 32.43139 -81.28903 8379 ft 283 kts 247°
2026-05-04 22:49 32.42404 -81.31054 8086 ft 280 kts 248°
2026-05-04 22:49 32.41680 -81.33178 7790 ft 277 kts 248°
2026-05-04 22:49 32.40959 -81.35291 7495 ft 276 kts 248°
2026-05-04 22:49 32.40243 -81.37390 7195 ft 274 kts 247°
2026-05-04 22:50 32.39534 -81.39471 6909 ft 271 kts 247°
2026-05-04 22:50 32.38836 -81.41532 6619 ft 270 kts 248°
2026-05-04 22:50 32.38139 -81.43589 6322 ft 269 kts 248°
2026-05-04 22:50 32.37444 -81.45635 6020 ft 267 kts 247°
2026-05-04 22:51 32.36762 -81.47675 5702 ft 265 kts 247°
2026-05-04 22:51 32.36097 -81.49693 5410 ft 260 kts 247°
2026-05-04 22:51 32.35449 -81.51674 5107 ft 256 kts 247°
2026-05-04 22:51 32.34546 -81.53444 4810 ft 250 kts 224°
2026-05-04 22:52 32.33090 -81.54488 4505 ft 246 kts 196°
2026-05-04 22:52 32.31400 -81.54724 4219 ft 243 kts 184°
2026-05-04 22:52 32.29742 -81.54780 4046 ft 235 kts 183°
2026-05-04 22:52 32.28139 -81.54831 3887 ft 224 kts 182°
2026-05-04 22:53 32.26620 -81.54896 3718 ft 213 kts 182°
2026-05-04 22:53 32.25172 -81.54961 3545 ft 201 kts 182°
2026-05-04 22:53 32.23830 -81.55035 3389 ft 188 kts 182°
2026-05-04 22:53 32.22532 -81.55126 3217 ft 187 kts 182°
2026-05-04 22:54 32.21231 -81.55218 3035 ft 186 kts 182°
2026-05-04 22:54 32.19917 -81.55322 2873 ft 189 kts 183°
2026-05-04 22:54 32.18613 -81.55434 2684 ft 189 kts 180°
2026-05-04 22:54 32.17309 -81.55418 2508 ft 185 kts 174°
2026-05-04 22:55 32.16071 -81.55069 2334 ft 184 kts 157°
2026-05-04 22:55 32.14975 -81.54299 2155 ft 184 kts 143°
2026-05-04 22:55 32.14076 -81.53214 2042 ft 186 kts 130°
2026-05-04 22:55 32.13484 -81.52154 1980 ft 186 kts 120°
2026-05-04 22:56 32.13113 -81.50685 1985 ft 189 kts 99°
2026-05-04 22:56 32.13083 -81.49148 1999 ft 190 kts 94°
2026-05-04 22:56 32.13075 -81.47579 1991 ft 193 kts 95°
2026-05-04 22:56 32.13065 -81.45996 1999 ft 193 kts 94°
2026-05-04 22:57 32.13055 -81.44403 2002 ft 191 kts 95°
2026-05-04 22:57 32.13043 -81.42820 1999 ft 193 kts 94°
2026-05-04 22:57 32.13032 -81.41254 2000 ft 193 kts 95°
2026-05-04 22:57 32.13021 -81.39683 2007 ft 190 kts 94°
2026-05-04 22:58 32.13009 -81.38126 2001 ft 187 kts 94°
2026-05-04 22:58 32.13000 -81.36676 1995 ft 169 kts 95°
2026-05-04 22:58 32.12989 -81.35330 1995 ft 160 kts 95°
2026-05-04 22:58 32.12978 -81.34034 1979 ft 156 kts 95°
2026-05-04 22:59 32.12967 -81.32766 1836 ft 155 kts 95°
2026-05-04 22:59 32.12957 -81.31503 1636 ft 148 kts 95°
2026-05-04 22:59 32.12949 -81.30330 1454 ft 138 kts 97°
2026-05-04 22:59 32.12939 -81.29205 1275 ft 136 kts 96°
2026-05-04 23:00 32.12929 -81.28099 1082 ft 135 kts 95°
2026-05-04 23:00 32.12919 -81.26994 911 ft 134 kts 97°
2026-05-04 23:00 32.12910 -81.25892 734 ft 134 kts 97°
2026-05-04 23:00 32.12900 -81.24780 552 ft 137 kts 94°
2026-05-04 23:01 32.12890 -81.23654 372 ft 136 kts 91°
2026-05-04 23:01 32.12881 -81.22550 183 ft 133 kts 96°
2026-05-04 23:01 32.12872 -81.21457 52 ft 129 kts 96°
2026-05-04 23:01 32.12856 -81.20569 50 ft 80 kts 91°
2026-05-04 23:02 32.12862 -81.20143 53 ft 30 kts 88°
2026-05-04 23:02 32.12864 -81.19904 54 ft 27 kts 87°
2026-05-04 23:02 32.12913 -81.19821 53 ft 10 kts
2026-05-04 23:02 32.12918 -81.19821 54 ft 0 kts
2026-05-04 23:04 32.12920 -81.19820 55 ft 2 kts
2026-05-04 23:04 32.12977 -81.19816 52 ft 10 kts 360°
2026-05-04 23:04 32.13020 -81.19866 52 ft 9 kts 284°
2026-05-04 23:05 32.13023 -81.19924 57 ft 6 kts 271°
2026-05-04 23:05 32.13024 -81.19986 58 ft 9 kts 270°
2026-05-04 23:05 32.13024 -81.20070 58 ft 13 kts 270°
2026-05-04 23:05 32.13026 -81.20185 55 ft 15 kts 270°
2026-05-04 23:06 32.13027 -81.20309 54 ft 15 kts 270°
2026-05-04 23:06 32.13028 -81.20432 54 ft 15 kts 271°
2026-05-04 23:06 32.13031 -81.20553 53 ft 15 kts 271°
2026-05-04 23:06 32.13036 -81.20686 49 ft 17 kts 272°
2026-05-04 23:07 32.13055 -81.20801 46 ft 13 kts 312°
2026-05-04 23:07 32.13137 -81.20815 46 ft 12 kts 358°
2026-05-04 23:07 32.13221 -81.20818 44 ft 12 kts
2026-05-04 23:07 32.13309 -81.20816 42 ft 13 kts
2026-05-04 23:08 32.13404 -81.20816 39 ft 9 kts
2026-05-04 23:08 32.13462 -81.20795 38 ft 6 kts 27°
2026-05-04 23:08 32.13477 -81.20788 38 ft 1 kts 12°
2026-05-04 23:08 32.13478 -81.20788 38 ft 0 kts 11°
2026-05-04 23:09 32.13494 -81.20786 38 ft 5 kts
2026-05-04 23:09 32.13510 -81.20785 38 ft 0 kts
2026-05-04 23:09 32.13517 -81.20785 38 ft 0 kts